Location: Dittelbrunn
(50.0738°N, 10.2196°E)
Time: 13:14:30
(UTC+00:00)

OBJECT-B - Pass Details

Date: 18 September 2020
Orbit: 421 x 433 km, 97.0° (Epoch: 09 October)

Event Time Altitude Azimuth Distance (km) Brightness Sun altitude
Exits shadow 20:34:37 12° 267° (W) 1,397 3.9 -28.4°
Maximum altitude 20:34:48 12° 271° (W) 1,395 3.9 -28.4°
Drops below altitude 10° 20:36:08 10° 295° (WNW) 1,519 4.4 -28.6°
Sets 20:39:13 0° 328° (NNW) 2,394 5.7 -28.9°
